sat.trackr.live / text

‹ back to catalog

STARLINK-31487

NORAD 59297 · 2024-056B

PAYLOAD ACTIVE UNKNOWN

§ Identity

Operator
Country
US
Launch date
2024-03-24
Launch site
AFETR
Launch vehicle
Mass (kg)
RCS (m²)

Purposes: comms

External: N2YO · Heavens-Above · Gunter

§ Orbital elements

Epoch: 2026-09-20T06:59:40.222464Z

Period
94.27 min
Inclination
43.0005°
Eccentricity
0.0001064
Mean motion
15.27578552 rev/d
Perigee alt
482.3 km
Apogee alt
483.8 km
Semi-major
6,861.2 km
B*
-1.7696e-5
RAAN
211.9142°
Arg perigee
275.9573°
Mean anomaly
84.1157°
Rev number
14,103

§ Raw data

STARLINK-314871 59297U 24056B   26263.29143776 -.00000749  00000+0 -17696-4 0  99912 59297  43.0005 211.9142 0001064 275.9573  84.1157 15.27578552141037

JSON: /api/v1/satellites/59297 · /tle

For live sub-satellite position, see the globe view (requires WebGL).

§ Visibility from observer

Set your observer location to see the next 7 days of passes ≥ 10°. The values pass through the URL so the page stays shareable.

No JS? Fill the form by hand. The geolocation button needs JavaScript.